Location: Katowice
(50.2611°N, 19.0242°E)
Time: 12:52:24
(UTC+02:00)

Explorer 7 - Pass Details

Date: 03 September 2019
Orbit: 485 x 680 km, 50.3° (Epoch: 18 September)

Event Time Altitude Azimuth Distance (km) Brightness Sun altitude
Rises 10:47:47 0° 285° (WNW) 3,016 10.2 41.0°
Reaches altitude 10° 10:50:14 10° 281° (W) 2,084 9.5 41.3°
Maximum altitude 10:54:55 52° 205° (SSW) 796 8.5 41.7°
Drops below altitude 10° 10:59:21 10° 129° (SE) 1,978 10.7 42.2°
Sets 11:01:37 0° 125° (SE) 2,848 11.2 42.4°
